Starlink 30446

operational
NORAD ID: 57872 Int'l Des: 2023-144 Owner: SPXS Country: US Constellation: starlink
LEOCIRCULAR

Starlink 30446について

説明を読み込み中...

リアルタイム位置

3D地球を読み込み中...

次回通過

高度履歴

Altitude vs Time

uPlot chart will show altitude changes over time

軌道要素

1 57872U 23144J 25352.38077372 .00000959 00000-0 86028-4 0 9998
2 57872 43.0036 356.1623 0001308 270.1955 89.8738 15.02543824125267
Epoch: Dec 18, 2025 • Age: 17 hours

現在のステータス

高度 561.0 km
速度 7.59 km/s
衛星直下点 33.38°N, 15.07°E
打ち上げ日 Sep 16, 2023
運用期間 2.2 years
タイプ internet

技術仕様

分類 Payload
質量 730.00 kg
乾燥質量 700.00 kg
総質量 730.00 kg
長さ 0.30 m
直径 4.10 m
スパン 29.00 m
形状 Box + pan
製造者 SPXS
バスタイプ Starlink V2M
フェーズステータス In Orbit
所有者/国 SPXS/US

大規模コンステレーション

Loading constellations...